Regional Weather Roundup
Issued by NWS

Home | Current Version | Previous Version | Graphics & Text | Print | Product List | Glossary On
Versions: 1 2 3 4 5 6 7 8 9 10 11 12 13 14 15 16 17 18 19 20 21 22 23 24 25 26 27 28 29 30 31 32 33 34 35 36 37 38 39 40 41 42 43 44 45 46 47 48 49 50
589
ASUS43 KBIS 121810
RWRND

NORTH DAKOTA REGIONAL WEATHER ROUNDUP
NATIONAL WEATHER SERVICE BISMARCK ND
1200 PM CST FRI FEB 12 2016

NOTE: "FAIR" INDICATES FEW OR NO CLOUDS BELOW 12,000 FEET WITH NO
SIGNIFICANT WEATHER AND/OR OBSTRUCTIONS TO VISIBILITY.


NDZ001>003-009>011-017-121900-
NORTHWEST NORTH DAKOTA

CITY           SKY/WX    TMP DP  RH WIND       PRES   REMARKS
WILLISTON      CLOUDY     9  -4  55 VRB5      30.56S WCI   1
6HR MIN TEMP:  -1; 6HR MAX TEMP:  10;

MINOT          CLOUDY     7  -8  50 N3        30.61R
MINOT AFB      SUNNY     10  -7  47 CALM      30.61R
$$

NDZ018>021-031>035-040>046-121900-
SOUTHWEST NORTH DAKOTA

CITY           SKY/WX    TMP DP  RH WIND       PRES   REMARKS
BISMARCK       CLOUDY    10  -1  61 E8        30.60F WCI  -2
6HR MIN TEMP:   4; 6HR MAX TEMP:  13;

DICKINSON      CLOUDY     9  -2  61 SE8       30.47S WCI  -3
GARRISON         N/A      4  -4  69 CALM      30.58R
6HR MIN TEMP:  -2; 6HR MAX TEMP:   5;

HETTINGER ARPT CLOUDY    13   7  77 E8        30.49S WCI   2
$$

NDZ004>008-012>016-024-026-027-054-121900-
NORTHEAST NORTH DAKOTA

CITY           SKY/WX    TMP DP  RH WIND       PRES   REMARKS
GRAND FORKS    PTSUNNY   -2 -13  59 N18       30.68R WCI -24
GRND FRKS AFB  CLOUDY    -2 -11  65 N16       30.67S WCI -23
DEVILS LAKE    CLOUDY    -7 -13  75 N9        30.64R WCI -24
$$

NDZ022-023-025-028>030-036>039-047>053-121900-
SOUTHEAST NORTH DAKOTA

CITY           SKY/WX    TMP DP  RH WIND       PRES   REMARKS
FARGO          MOSUNNY    1 -10  60 N17       30.65R WCI -19
6HR MIN TEMP:  -1; 6HR MAX TEMP:   2;

JAMESTOWN      PTSUNNY   -1 -10  65 N14       30.62R WCI -20
$$





USA.gov is the U.S. government's official web portal to all federal, state and local government web resources and services.